Hauptseite
METAR-TAF:

METAR-TAF

Flughäfen :

Reschenpass, Italien

Breite: 46-50N, Länge: 010-30E, Höhe: 1800 m

Beobachtung

Neuester Wetterbericht von vor 1 Stunde und 18 Minuten, um 06:55 UTC
Wind 9 kt aus Nord/Nordost
Temperatur 3°C
Luftfeuchtigkeit 93%
Luftdruck 1028 hPa
Sichtweite 10 km oder mehr
keine Wolken unter 1500 m und keine Kumulonimbus oder Gewitterwolken

METAR: LIVE 230655Z 02009KT CAVOK 03/02 Q1028 RMK SKC VIS MIN 9999

Zeit: 10:13 (08:13 UTC)


TAF: fehlend

Wetterbeobachtungen und Prognosen von mehr als 4000 Flughäfen (METAR und TAF Bericht).

Die verfügbaren Stationen werden durch gelbe und rote Markierungen auf der Karte dargestellt.

Führen Sie die Maus auf sie, um den Namen der Station zu sehen.

Darauf klicken, um die Beobachtung von Wetterbeobachtungen und Prognosen zu sehen.

Um die Karte zu ändern : klicken Sie auf den grünen Tasten mit einem schwarzen Kreuz Zum Vergrößern, auf den grünen Button mit einem Gedankenstrich zu verkleinern, oder auf die grünen Pfeile für benachbarte Karten.


METAR-TAF: